Tracking 19170 objects as of 23-May-2018
HD Live streaming from Space Station
objects crossing your sky now

USA 139

Track USA 139 now!
USA 139 is classified as:


NORAD ID: 25336
Int'l Code: 1998-029A
Perigee: 35,623.1 km
Apogee: 35,965.4 km
Inclination: 8.9 °
Period: 1,436.1 minutes
Semi major axis: 42165 km
RCS: Unknown
Launch date: May 9, 1998
Source: United States (US)
Launch site: AIR FORCE EASTERN TEST RANGE (AFETR)

ELINT.
aabbcc
Your satellite tracking list
Your tracking list is empty




NASA's NSSDC Master Catalog

Two Line Element Set (TLE):
1 25336U 98029A   18125.44093587 0.00000000  00000-0  00000-0 0    07
2 25336   8.9419 355.7422 0040580 267.5564  91.9856  1.00270000    00
Source of the keplerian elements: McCants